Connexion S'enregistrer

Connexion à votre compte

Identifiant
Mot de passe
Maintenir la connexion active sur ce site

Créer un compte

Pour valider ce formulaire, vous devez remplir tous les champs.
Nom
Identifiant
Mot de passe
Répétez le mot de passe
Adresse e-mail
Répétez l'adresse e-mail

Veuillez saisir l'adresse e-mail associée à votre compte d'utilisateur. Un code de vérification vous sera adressé. Lorsque vous le recevrez, vous pourrez choisir un nouveau mot de passe

Nous contacter

 Téléphone : +33 (0)4 79 54 41 81

Coordonnées détaillées et accès : cliquez ici

 
LFLB °C
    Ferienhaus Ostsee
[source: ADDS]
METAR
LFLB 210330Z AUTO 03005KT 340V050 7000 SCT021 SCT062 OVC090 04/02 Q1009 =
TAF LFLB 201700Z 2018/2118 36008KT 9999 FEW020 BKN070 TEMPO 2106/2110 VRB03KT 5000 -RA SCT014 BKN040
TAF
TAF LFLB 201700Z 2018/2118 36008KT 9999 FEW020 BKN070 TEMPO 2106/2110 VRB03KT 5000 -RA SCT014 BKN040 =
SR / SS: 06:43 / 16:00 UTC (Lever/Coucher du soleil le 2018-11-21)
JSN Boot template designed by JoomlaShine.com